FENGYUN 1C DEB, 40695

Orbit data source: Space-Track

FENGYUN 1C DEB, 40695 is space debris in SSO originally from a launch on Mon, 10 May 1999 UTC launched from the Taiyaun Space Center, China (TSC). Fengyun 1C debris stems from the Chinese weather satellite Fengyun-1C, which was intentionally destroyed by a Chinese anti-satellite missile in 2007. This event dramatically increased the amount of space debris, with thousands of trackable fragments posing hazards to satellites and human spaceflight. The Fengyun 1C debris cloud has become a focal point in discussions about space sustainability and the need for international regulations to prevent the creation of new debris.

Loading next visibility...
Identifier
40695, 1999-025EXB
Orbit
SSO
Country
Flag of CNCN / PRC
Related business
Manufacturer
Unknown
Mission
Spacecraft
Bus & Motor
Unknown
Mass
Unknown
Launch date (UTC)
1999-05-10 (26 years ago)
Launch vehicle
Unknown
Launch site
Taiyaun Space Center, China (TSC)
Object type
Payload
Rocket body
Debris
Shape & HBR
Unknown shape, 0.1 m
Radar Cross Section
Small (<0.1 m²)

Expand to show TLE details & history
Last TLE update: 2 weeks ago

TLE from 2 weeks ago
0 FENGYUN 1C DEB
1 40695U 99025EXB 25290.55425220  .00004193  00000-0  64436-3 0  9995
2 40695  99.4223  41.9811 0283056 139.5283 222.7342 14.50685845310512
Epoch: 2025-10-17T13:18Z
TLE epoch observation values (Epoch: 2025-10-17T13:18:07.390Z)
Latitude
Longitude
176.15235°
Altitude
876.564 km
Speed
7.335 km/s
True Right ascension
02h 47m 55s
True Declination
0° 00' 00"
Sunlit
Object was in full shadow at epoch
Visualization orbit readout
Latitude
Unknown
Longitude
Unknown
Altitude
Unknown
Speed
Unknown
Apparent Right ascension
Unknown
Apparent Declination
Unknown
Sunlit
N/A
Visualization observer readout
Local Sidereal Time
04:17:58
Azimuth
Unknown
Elevation
Unknown
Doppler factor
Unknown
Orbital elements
Apogee altitude
921.492 km
Perigee altitude
519.627 km
Semi-major axis
7,098.697 km
Eccentricity
0.02831
Inclination
99.4223°
RAAN
41.9811°
Arg. of periapsis
139.5283°
True anomaly
220.58942°
Mean anomaly
222.7342°
Eccentric anomaly
221.65626°
Mean motion
3.6289 °/min
Orbital period
99.2 mins
BSTAR
0.00064436
Loading maneuver chart data...
Computing Atmospheric mass density...

Documentation

Showing up to 5 results
|